FW1299 Weather Reports


time (UTC)temp
C
wind
direction
speed
KPH
gust
KPH
rain 1hr
cm
rain 24hr
cm
rain mn
cm
humidity
%
barometer
mb
20260504194819 23 186 6.4 17.7 0.00 0.00 0.00 41 1009.6
20260504193820 22 217 6.4 19.3 0.00 0.00 0.00 41 1009.7
20260504192820 22 199 8.0 19.3 0.00 0.00 0.00 42 1009.7
20260504191818 22 163 6.4 17.7 0.00 0.00 0.00 40 1010.0
20260504185819 22 262 8.0 17.7 0.00 0.00 0.00 45 1010.4
20260504184816 22 148 6.4 17.7 0.00 0.00 0.00 41 1010.6
20260504182818 22 195 6.4 19.3 0.00 0.00 0.00 41 1010.9
20260504181818 22 253 8.0 24.1 0.00 0.00 0.00 43 1011.1
20260504180819 22 209 6.4 20.9 0.00 0.00 0.00 41 1011.2
20260504175817 22 210 8.0 19.3 0.00 0.00 0.00 42 1011.3
20260504174815 21 262 8.0 24.1 0.00 0.00 0.00 41 1011.5
20260504172822 21 226 6.4 20.9 0.00 0.00 0.00 46 1011.5
20260504171816 21 239 4.8 12.9 0.00 0.00 0.00 42 1011.6
20260504170816 21 238 8.0 22.5 0.00 0.00 0.00 45 1011.7
20260504150813 19 219 4.8 14.5 0.00 0.00 0.00 51 1013.1
20260504130808 15 294 3.2 9.7 0.00 0.00 0.00 66 1013.8
20260504081750 7 142 0.0 1.6 0.00 0.00 0.00 67 1013.9
20260504080751 7 210 0.0 3.2 0.00 0.00 0.00 67 1013.9
20260504050732 9 231 1.6 8.0 0.00 0.00 0.00 61 1013.6
20260504045732 9 212 0.0 3.2 0.00 0.00 0.00 61 1013.4
20260504044731 9 207 0.0 0.0 0.00 0.00 0.00 60 1013.4
20260504043731 9 158 0.0 0.0 0.00 0.00 0.00 60 1013.4
20260504041730 9 248 0.0 0.0 0.00 0.00 0.00 60 1013.2
20260504033725 9 205 0.0 1.6 0.00 0.00 0.00 59 1013.2
20260504032725 10 224 0.0 0.0 0.00 0.00 0.00 58 1013.1
20260504031727 9 201 0.0 3.2 0.00 0.00 0.00 60 1012.9
20260504030721 9 249 0.0 3.2 0.00 0.00 0.00 59 1012.8
20260504024720 8 270 0.0 0.0 0.00 0.00 0.00 60 1012.9
20260504023720 9 245 0.0 3.2 0.00 0.00 0.00 60 1013.0
20260504022720 9 228 0.0 0.0 0.00 0.00 0.00 60 1013.0
20260504021720 9 246 0.0 3.2 0.00 0.00 0.00 59 1013.0
20260504020719 9 224 0.0 0.0 0.00 0.00 0.00 59 1013.0
20260504015721 9 261 0.0 1.6 0.00 0.00 0.00 59 1013.0
20260504014720 9 258 0.0 1.6 0.00 0.00 0.00 59 1013.1
20260504013719 8 238 0.0 0.0 0.00 0.00 0.00 59 1012.9
20260504012716 8 238 0.0 1.6 0.00 0.00 0.00 59 1012.7
20260504011712 8 236 0.0 0.0 0.00 0.00 0.00 60 1012.6
20260504010712 9 249 0.0 0.0 0.00 0.00 0.00 61 1012.4
20260504005709 9 243 0.0 0.0 0.00 0.00 0.00 59 1012.3
20260504004711 10 243 0.0 0.0 0.00 0.00 0.00 59 1012.3
20260504003709 10 243 0.0 0.0 0.00 0.00 0.00 58 1012.1
20260504002712 11 243 0.0 0.0 0.00 0.00 0.00 55 1011.9
20260504001707 11 243 0.0 0.0 0.00 0.00 0.00 51 1011.8
20260504000707 12 243 0.0 0.0 0.00 0.00 0.00 48 1011.6
20260503235703 13 243 0.0 0.0 0.00 0.00 0.00 45 1011.5
20260503234704 13 211 1.6 8.0 0.00 0.00 0.00 43 1011.4
20260503233704 14 265 0.0 9.7 0.00 0.00 0.00 41 1011.4
20260503232704 14 237 0.0 3.2 0.00 0.00 0.00 41 1011.3
20260503230704 15 203 3.2 11.3 0.00 0.00 0.00 39 1011.2
20260503225703 15 212 3.2 12.9 0.00 0.00 0.00 37 1011.2
20260503224704 16 271 3.2 12.9 0.00 0.00 0.00 37 1011.2
20260503223703 16 259 1.6 6.4 0.00 0.00 0.00 38 1011.3
20260503222705 16 269 3.2 11.3 0.00 0.00 0.00 38 1011.2
20260503221703 16 281 3.2 12.9 0.00 0.00 0.00 39 1011.2
20260503220702 16 217 3.2 14.5 0.00 0.00 0.00 36 1011.1
20260503215659 16 259 4.8 12.9 0.00 0.00 0.00 36 1011.2
20260503214657 16 224 6.4 19.3 0.00 0.00 0.00 40 1011.3
20260503213657 16 103 3.2 17.7 0.00 0.00 0.00 36 1011.1
20260503212656 16 207 3.2 12.9 0.00 0.00 0.00 40 1011.2
20260503210656 16 250 6.4 19.3 0.00 0.00 0.00 38 1011.3
20260503205655 16 287 4.8 16.1 0.00 0.00 0.00 37 1011.3
20260503204655 15 324 8.0 25.7 0.00 0.00 0.00 39 1011.2
20260503202648 16 218 4.8 22.5 0.00 0.00 0.00 37 1011.2
20260503201647 15 323 3.2 11.3 0.00 0.00 0.00 40 1011.1
20260503200647 15 275 6.4 19.3 0.00 0.00 0.00 39 1011.3
20260503195647 15 295 6.4 17.7 0.00 0.00 0.00 40 1011.4